When you browse on this site, cookies collect data to enhance your experience and personalize the content and advertising you see.
Visit our Privacy Policy to learn more. By continuing to use the site, you agree to this use of cookies and data.
  • In France
  • List of Countries
  • For 7 days
  • Water Temperature
  • Satellite Maps
  • Weather Map
  • Weather Widgets
  • user-avatar
    Login

    Hourly Weather Shumen

    Today, 23 March, Saturday

    Time Temperature Precipitation Wind Pressure Humidity
    00:00 +8°C° 0 mm 1 mps 737 mmHg 63%
    01:00 +8°C° 0 mm 1 mps 737 mmHg 64%
    02:00 +8°C° 0 mm 1 mps 736 mmHg 65%
    03:00 +8°C° 0 mm 1 mps 736 mmHg 67%
    04:00 +7°C° 0 mm 1 mps 736 mmHg 69%
    05:00 +7°C° 0 mm 1 mps 736 mmHg 71%
    06:00 +7°C° 0 mm 2 mps 736 mmHg 70%
    07:00 +8°C° 0 mm 2 mps 736 mmHg 68%
    08:00 +9°C° 0 mm 2 mps 736 mmHg 67%
    09:00 +10°C° 0 mm 2 mps 736 mmHg 63%
    10:00 +10°C° 0 mm 3 mps 736 mmHg 59%
    11:00 +11°C° 0 mm 4 mps 736 mmHg 55%
    12:00 +11°C° 0 mm 4 mps 736 mmHg 55%
    13:00 +11°C° 0 mm 4 mps 736 mmHg 55%
    14:00 +10°C° 0 mm 4 mps 736 mmHg 54%
    15:00 +10°C° 0 mm 4 mps 735 mmHg 51%
    16:00 +10°C° 0 mm 4 mps 735 mmHg 47%
    17:00 +8°C° 0 mm 5 mps 735 mmHg 43%
    18:00 +8°C° 0 mm 4 mps 735 mmHg 40%
    19:00 +8°C° 0 mm 3 mps 736 mmHg 38%
    20:00 +8°C° 0 mm 2 mps 736 mmHg 35%
    21:00 +7°C° 0 mm 2 mps 736 mmHg 37%
    22:00 +6°C° 0 mm 2 mps 736 mmHg 39%
    23:00 +6°C° 0 mm 1 mps 736 mmHg 40%

    Tomorrow, 24 March, Sunday

    Time Temperature Precipitation Wind Pressure Humidity
    00:00 +6°C° 0 mm 1 mps 736 mmHg 42%
    01:00 +5°C° 0 mm 1 mps 736 mmHg 44%
    02:00 +4°C° 0 mm 1 mps 736 mmHg 46%
    03:00 +4°C° 0 mm 1 mps 736 mmHg 47%
    04:00 +4°C° 0 mm 1 mps 736 mmHg 47%
    05:00 +3°C° 0 mm 1 mps 735 mmHg 47%
    06:00 +4°C° 0 mm 1 mps 736 mmHg 46%
    07:00 +5°C° 0 mm 1 mps 736 mmHg 45%
    08:00 +6°C° 0 mm 1 mps 736 mmHg 43%
    09:00 +7°C° 0 mm 2 mps 736 mmHg 39%
    10:00 +8°C° 0 mm 3 mps 736 mmHg 36%
    11:00 +10°C° 0 mm 3 mps 736 mmHg 32%
    12:00 +10°C° 0 mm 3 mps 736 mmHg 30%
    13:00 +11°C° 0 mm 3 mps 735 mmHg 29%
    14:00 +12°C° 0 mm 3 mps 735 mmHg 28%
    15:00 +12°C° 0 mm 3 mps 735 mmHg 29%
    16:00 +12°C° 0 mm 3 mps 734 mmHg 30%
    17:00 +12°C° 0 mm 3 mps 734 mmHg 32%
    18:00 +10°C° 0 mm 2 mps 734 mmHg 36%
    19:00 +9°C° 0 mm 1 mps 734 mmHg 41%
    20:00 +7°C° 0 mm 0 mps 734 mmHg 46%
    21:00 +7°C° 0 mm 1 mps 734 mmHg 49%
    22:00 +7°C° 0 mm 1 mps 733 mmHg 53%
    23:00 +6°C° 0 mm 1 mps 733 mmHg 57%

    Day after tomorrow, 25 March, Monday

    Time Temperature Precipitation Wind Pressure Humidity
    00:00 +6°C° 0 mm 1 mps 733 mmHg 58%
    01:00 +5°C° 0 mm 1 mps 733 mmHg 60%
    02:00 +5°C° 0 mm 1 mps 732 mmHg 61%
    03:00 +5°C° 0 mm 1 mps 732 mmHg 62%
    04:00 +5°C° 0 mm 1 mps 732 mmHg 63%
    05:00 +4°C° 0 mm 1 mps 731 mmHg 63%
    06:00 +5°C° 0 mm 1 mps 731 mmHg 60%
    07:00 +7°C° 0 mm 1 mps 731 mmHg 58%
    08:00 +8°C° 0 mm 1 mps 731 mmHg 55%
    09:00 +9°C° 0 mm 2 mps 731 mmHg 48%
    10:00 +13°C° 0 mm 2 mps 731 mmHg 42%
    11:00 +15°C° 0 mm 2 mps 730 mmHg 35%
    12:00 +16°C° 0 mm 3 mps 730 mmHg 33%
    13:00 +17°C° 0 mm 3 mps 729 mmHg 30%
    14:00 +18°C° 0 mm 3 mps 729 mmHg 28%
    15:00 +18°C° 0 mm 3 mps 728 mmHg 30%
    16:00 +18°C° 0 mm 3 mps 728 mmHg 32%
    17:00 +18°C° 0 mm 3 mps 727 mmHg 33%
    18:00 +15°C° 0 mm 2 mps 727 mmHg 41%
    19:00 +13°C° 0 mm 2 mps 727 mmHg 48%
    20:00 +10°C° 0 mm 2 mps 727 mmHg 55%
    21:00 +9°C° 0 mm 2 mps 727 mmHg 58%
    22:00 +9°C° 0 mm 2 mps 727 mmHg 60%
    23:00 +8°C° 0 mm 2 mps 727 mmHg 63%

    26 March, Tuesday

    Time Temperature Precipitation Wind Pressure Humidity
    00:00 +8°C° 0 mm 2 mps 726 mmHg 63%
    01:00 +7°C° 0 mm 2 mps 726 mmHg 62%
    02:00 +7°C° 0 mm 2 mps 726 mmHg 62%
    03:00 +7°C° 0 mm 2 mps 726 mmHg 62%
    04:00 +7°C° 0 mm 2 mps 726 mmHg 61%
    05:00 +7°C° 0 mm 2 mps 726 mmHg 61%
    06:00 +8°C° 0 mm 3 mps 726 mmHg 62%
    07:00 +8°C° 0 mm 4 mps 727 mmHg 63%
    08:00 +9°C° 0 mm 6 mps 727 mmHg 64%
    09:00 +9°C° 0 mm 7 mps 727 mmHg 61%
    10:00 +10°C° 0 mm 7 mps 728 mmHg 57%
    11:00 +11°C° 0 mm 8 mps 728 mmHg 54%
    12:00 +10°C° 0.8 mm 7 mps 728 mmHg 61%
    13:00 +8°C° 0.8 mm 7 mps 728 mmHg 68%
    14:00 +7°C° 0.8 mm 6 mps 728 mmHg 75%
    15:00 +5°C° 0.4 mm 6 mps 729 mmHg 74%
    16:00 +4°C° 0.4 mm 6 mps 729 mmHg 74%
    17:00 +4°C° 0.4 mm 6 mps 730 mmHg 74%
    18:00 +5°C° 0.1 mm 5 mps 730 mmHg 74%
    19:00 +4°C° 0.1 mm 4 mps 731 mmHg 75%
    20:00 +5°C° 0.1 mm 2 mps 731 mmHg 75%
    21:00 +4°C° 0 mm 2 mps 732 mmHg 73%
    22:00 +3°C° 0 mm 3 mps 732 mmHg 72%
    23:00 +3°C° 0 mm 3 mps 732 mmHg 70%

    27 March, Wednesday

    Time Temperature Precipitation Wind Pressure Humidity
    00:00 +3°C° 0 mm 3 mps 732 mmHg 71%
    01:00 +2°C° 0 mm 3 mps 733 mmHg 71%
    02:00 +1°C° 0 mm 4 mps 733 mmHg 72%
    03:00 +1°C° 0 mm 4 mps 733 mmHg 72%
    04:00 0°C° 0 mm 4 mps 733 mmHg 73%
    05:00 0°C° 0 mm 4 mps 734 mmHg 74%
    06:00 0°C° 0 mm 5 mps 734 mmHg 70%
    07:00 +1°C° 0 mm 5 mps 735 mmHg 66%
    08:00 +1°C° 0 mm 5 mps 735 mmHg 62%
    09:00 +2°C° 0 mm 5 mps 735 mmHg 55%
    10:00 +5°C° 0 mm 5 mps 736 mmHg 49%
    11:00 +6°C° 0 mm 5 mps 736 mmHg 42%
    12:00 +7°C° 0 mm 5 mps 736 mmHg 40%
    13:00 +8°C° 0 mm 5 mps 735 mmHg 38%
    14:00 +8°C° 0 mm 5 mps 735 mmHg 37%
    15:00 +8°C° 0 mm 4 mps 735 mmHg 37%
    16:00 +8°C° 0 mm 4 mps 735 mmHg 37%
    17:00 +7°C° 0 mm 4 mps 735 mmHg 37%
    18:00 +7°C° 0 mm 3 mps 735 mmHg 41%
    19:00 +6°C° 0 mm 2 mps 736 mmHg 45%
    20:00 +5°C° 0 mm 1 mps 736 mmHg 48%
    21:00 +5°C° 0 mm 1 mps 736 mmHg 50%
    22:00 +4°C° 0 mm 1 mps 736 mmHg 52%
    23:00 +3°C° 0 mm 0 mps 736 mmHg 53%

    28 March, Thursday

    Time Temperature Precipitation Wind Pressure Humidity
    00:00 +4°C° 0 mm 1 mps 736 mmHg 54%
    01:00 +3°C° 0 mm 1 mps 736 mmHg 54%
    02:00 +3°C° 0 mm 1 mps 736 mmHg 54%
    03:00 +2°C° 0 mm 2 mps 736 mmHg 58%
    04:00 +1°C° 0 mm 2 mps 737 mmHg 62%
    05:00 +1°C° 0 mm 2 mps 737 mmHg 66%
    06:00 +1°C° 0 mm 3 mps 737 mmHg 63%
    07:00 +2°C° 0 mm 3 mps 738 mmHg 60%
    08:00 +3°C° 0 mm 4 mps 738 mmHg 57%
    09:00 +4°C° 0 mm 4 mps 738 mmHg 51%
    10:00 +5°C° 0 mm 5 mps 738 mmHg 45%
    11:00 +6°C° 0 mm 5 mps 739 mmHg 39%
    12:00 +6°C° 0 mm 5 mps 738 mmHg 37%
    13:00 +7°C° 0 mm 6 mps 738 mmHg 36%
    14:00 +7°C° 0 mm 6 mps 738 mmHg 34%
    15:00 +7°C° 0 mm 5 mps 738 mmHg 35%
    16:00 +7°C° 0 mm 5 mps 738 mmHg 36%
    17:00 +7°C° 0 mm 5 mps 738 mmHg 37%
    18:00 +5°C° 0 mm 4 mps 738 mmHg 42%
    19:00 +4°C° 0 mm 3 mps 738 mmHg 46%
    20:00 +5°C° 0 mm 1 mps 738 mmHg 51%
    21:00 +4°C° 0 mm 1 mps 738 mmHg 53%
    22:00 +4°C° 0 mm 1 mps 738 mmHg 54%
    23:00 +3°C° 0 mm 1 mps 738 mmHg 56%
    Show more